Overview Statistics Trail Chart Weather Telemetry Raw packets
 

This is the latest recevied weather packets stored in our database for station/object K4IR. If no packets are shown the sender has not sent any weather packets the latest 10 day(s).

<< 34 35 36 37 38 39 40 >>
Time Temp. Humidity Pressure Rain* Wind** Luminosity Snow
1788109992 30° C 72% 1021 hPa 0 mm - 100 W/m² -
1788109393 31.11° C 68% 1020.9 hPa 0 mm - 390 W/m² -
1788108786 31.11° C 67% 1021.3 hPa 0 mm - 871 W/m² -
1788108184 31.11° C 69% 1020.9 hPa 0 mm - 807 W/m² -
1788107582 30.56° C 70% 1021.2 hPa 0 mm - 770 W/m² -
1788106979 30.56° C 69% 1021.2 hPa 0 mm - 766 W/m² -
1788106379 30° C 71% 1021.6 hPa 0 mm - 601 W/m² -
1788105775 30° C 70% 1021.5 hPa 0 mm - 471 W/m² -
1788105173 30° C 76% 1021.6 hPa 0 mm - 753 W/m² -
1788104569 29.44° C 78% 1021.9 hPa 0 mm - 461 W/m² -
1788103966 29.44° C 78% 1022 hPa 0 mm - 169 W/m² -
1788103365 28.89° C 79% 1022 hPa 0 mm - 188 W/m² -
1788102764 29.44° C 78% 1021.9 hPa 0 mm - 191 W/m² -
1788102159 28.89° C 81% 1022.2 hPa 0 mm - 211 W/m² -
1788101555 28.33° C 84% 1022.3 hPa 0 mm - 164 W/m² -
1788100952 27.78° C 86% 1022 hPa 0 mm - 140 W/m² -
1788100352 27.78° C 85% 1022 hPa 0 mm - 110 W/m² -
1788099748 27.78° C 86% 1021.9 hPa 0 mm - 381 W/m² -
1788099144 27.22° C 89% 1021.9 hPa 0 mm - 282 W/m² -
1788098540 26.67° C 92% 1022.1 hPa 0 mm - 422 W/m² -
1788097935 25.56° C 97% 1022.1 hPa 0 mm - 351 W/m² -
1788097332 25° C 98% 1022.2 hPa 0 mm - 192 W/m² -
1788096729 25° C 99% 1022.1 hPa 0 mm - 159 W/m² -
1788096126 25° C 99% 1022.3 hPa 0 mm - 202 W/m² -
1788095525 24.44° C 99% 1022.1 hPa 0 mm - 241 W/m² -

* Rain latest hour (hover to see other rain measurements)
** Current wind speed in m/s (hover to see current wind gust speed)